EW9273 Weather Reports


Display with metric or nautical units.
time (UTC)temp
F
wind
direction
speed
MPH
gust
MPH
rain 1hr
in
rain 24hr
in
rain mn
in
humidity
%
barometer
mb
20260510182554 85 113 4.0 11.0 0.00 0.00 0.00 65 1010.5
20260510182054 87 24 4.0 11.0 0.00 0.00 0.00 61 1010.6
20260510181615 87 160 2.0 7.0 0.00 0.00 0.00 59 1010.7
20260510181053 87 227 1.0 11.0 0.00 0.00 0.00 62 1010.8
20260510180552 86 89 4.0 11.0 0.00 0.00 0.00 62 1010.9
20260510180058 84 72 5.0 11.0 0.00 0.00 0.00 64 1010.9
20260510175550 85 114 4.0 11.0 0.00 0.00 0.00 63 1011.1
20260510175050 84 136 4.0 11.0 0.00 0.00 0.00 66 1011.2
20260510174603 84 90 4.0 12.0 0.00 0.00 0.00 64 1011.2
20260510174049 84 95 4.0 12.0 0.00 0.00 0.00 65 1011.2
20260510173548 83 188 2.0 12.0 0.00 0.00 0.00 66 1011.3
20260510173148 82 117 5.0 11.0 0.00 0.00 0.00 67 1011.3
20260510172549 84 28 3.0 12.0 0.00 0.00 0.00 65 1011.2
20260510172048 84 147 2.0 11.0 0.00 0.00 0.00 65 1011.2
20260510171607 83 122 3.0 11.0 0.00 0.00 0.00 68 1011.2
20260510171047 83 71 6.0 11.0 0.00 0.00 0.00 67 1011.2
20260510170548 82 105 3.0 11.0 0.00 0.00 0.00 67 1011.2
20260510170050 83 127 3.0 8.0 0.00 0.00 0.00 67 1011.3
20260510165543 82 140 2.0 10.0 0.00 0.00 0.00 68 1011.2
20260510165042 81 138 3.0 11.0 0.00 0.00 0.00 71 1011.3
20260510164541 81 105 6.0 11.0 0.00 0.00 0.00 70 1011.2
20260510164040 81 88 6.0 11.0 0.00 0.00 0.00 69 1011.2
20260510163540 81 138 4.0 12.0 0.00 0.00 0.00 69 1011.2
20260510163049 81 147 4.0 9.0 0.00 0.00 0.00 71 1011.2
20260510162539 81 214 4.0 11.0 0.00 0.00 0.00 71 1011.1
20260510162038 81 35 3.0 11.0 0.00 0.00 0.00 71 1011.1
20260510161536 81 138 3.0 11.0 0.00 0.00 0.00 72 1011.1
20260510161037 82 27 4.0 9.0 0.00 0.00 0.00 70 1011.1
20260510160536 81 70 1.0 9.0 0.00 0.00 0.00 71 1011.0
20260510160040 81 84 3.0 10.0 0.00 0.00 0.00 70 1011.0
20260510155533 82 101 2.0 10.0 0.00 0.00 0.00 70 1010.9
20260510155032 81 93 2.0 5.0 0.00 0.00 0.00 71 1010.9
20260510154533 80 159 1.0 9.0 0.00 0.00 0.00 71 1011.0
20260510154033 80 68 2.0 10.0 0.00 0.00 0.00 72 1010.9
20260510153529 80 95 4.0 10.0 0.00 0.00 0.00 71 1010.9
20260510153037 80 138 1.0 5.0 0.00 0.00 0.00 72 1010.9
20260510152526 80 112 1.0 5.0 0.00 0.00 0.00 72 1010.8
20260510152024 80 70 2.0 5.0 0.00 0.00 0.00 72 1010.7
20260510151527 79 85 0.0 6.0 0.00 0.00 0.00 74 1010.6
20260510151022 78 34 1.0 5.0 0.00 0.00 0.00 75 1010.6
20260510150520 78 51 2.0 5.0 0.00 0.00 0.00 75 1010.5
20260510150019 77 37 1.0 5.0 0.00 0.00 0.00 77 1010.5
20260510145520 76 225 0.0 5.0 0.00 0.00 0.00 78 1010.6
20260510145017 76 171 1.0 4.0 0.00 0.00 0.00 80 1010.5
20260510144516 75 188 0.0 5.0 0.00 0.00 0.00 81 1010.4
20260510144016 74 236 1.0 5.0 0.00 0.00 0.00 81 1010.5
20260510143514 74 161 3.0 5.0 0.00 0.00 0.00 81 1010.5
20260510143015 74 165 1.0 8.0 0.00 0.00 0.00 81 1010.4
20260510142513 74 150 3.0 8.0 0.00 0.00 0.00 81 1010.3
20260510142013 74 192 2.0 7.0 0.00 0.00 0.00 82 1010.3
20260510141514 73 138 3.0 10.0 0.00 0.00 0.00 83 1010.3
20260510141012 73 163 3.0 8.0 0.00 0.00 0.00 83 1010.2
20260510140510 73 171 2.0 7.0 0.00 0.00 0.00 84 1010.1
20260510140009 72 223 2.0 6.0 0.00 0.00 0.00 84 1010.0
20260510135508 72 234 3.0 6.0 0.00 0.00 0.00 84 1009.9
20260510135008 72 252 3.0 6.0 0.00 0.00 0.00 84 1009.9
20260510134506 72 155 3.0 9.0 0.00 0.00 0.00 84 1009.9
20260510134005 72 155 5.0 9.0 0.00 0.00 0.00 84 1009.8
20260510133504 71 174 2.0 6.0 0.00 0.00 0.00 84 1009.8
20260510133005 71 239 2.0 8.0 0.00 0.00 0.00 84 1009.7
20260510132504 71 209 3.0 8.0 0.00 0.00 0.00 84 1009.6
20260510132003 71 222 3.0 8.0 0.00 0.00 0.00 84 1009.6
20260510131501 71 188 4.0 8.0 0.00 0.00 0.00 84 1009.5
20260510131100 71 194 4.0 7.0 0.00 0.00 0.00 83 1009.4
20260510130559 71 214 3.0 7.0 0.00 0.00 0.00 83 1009.3
20260510130059 70 198 2.0 6.0 0.00 0.00 0.00 83 1009.3
20260510125557 70 190 2.0 5.0 0.00 0.01 0.00 83 1009.2
20260510125056 70 219 2.0 4.0 0.00 0.01 0.00 83 1009.1
20260510124600 70 233 2.0 4.0 0.00 0.01 0.00 83 1009.1
20260510124056 69 209 2.0 4.0 0.00 0.01 0.00 83 1009.1
20260510123554 69 224 1.0 4.0 0.00 0.01 0.00 83 1009.1
20260510123054 69 224 1.0 4.0 0.00 0.01 0.00 83 1009.1
20260510122552 68 224 0.0 1.0 0.00 0.01 0.00 83 1009.0
20260510122052 68 224 0.0 1.0 0.00 0.01 0.00 83 1009.0
20260510121551 68 224 0.0 2.0 0.00 0.01 0.00 82 1008.9
20260510121052 68 224 0.0 2.0 0.00 0.01 0.00 83 1008.8
20260510120550 68 222 0.0 2.0 0.00 0.01 0.00 82 1008.8
20260510120048 68 198 0.0 1.0 0.00 0.01 0.00 82 1008.7
20260510115548 68 198 0.0 1.0 0.00 0.01 0.00 82 1008.7
20260510115046 68 198 0.0 0.0 0.00 0.01 0.00 81 1008.7
20260510114556 68 198 0.0 1.0 0.00 0.01 0.00 81 1008.8
20260510114046 68 198 0.0 1.0 0.00 0.01 0.00 81 1008.7
20260510113545 68 198 0.0 2.0 0.00 0.01 0.00 81 1008.7
20260510113051 68 198 0.0 2.0 0.00 0.01 0.00 81 1008.7
20260510112545 68 198 0.0 3.0 0.00 0.01 0.00 81 1008.7
20260510112044 68 198 1.0 3.0 0.00 0.01 0.00 80 1008.6
20260510111544 68 198 1.0 3.0 0.00 0.01 0.00 80 1008.5
20260510111045 69 190 1.0 3.0 0.00 0.01 0.00 80 1008.6
20260510110543 69 174 0.0 0.0 0.00 0.01 0.00 79 1008.7
20260510110050 69 174 0.0 3.0 0.00 0.01 0.00 79 1008.8
20260510105542 69 174 0.0 3.0 0.00 0.01 0.00 79 1008.7
20260510105041 69 171 0.0 3.0 0.00 0.01 0.00 79 1008.7
20260510104540 69 174 1.0 4.0 0.00 0.01 0.00 79 1008.8
20260510104040 69 204 2.0 4.0 0.00 0.01 0.00 79 1008.8
20260510103540 69 210 1.0 3.0 0.00 0.01 0.00 78 1008.9
20260510103045 69 202 0.0 2.0 0.00 0.01 0.00 78 1008.9
20260510102539 69 214 0.0 2.0 0.00 0.01 0.00 78 1008.9
20260510102038 70 213 0.0 2.0 0.00 0.01 0.00 78 1008.9
20260510101545 70 108 0.0 2.0 0.00 0.01 0.00 78 1009.0
20260510101038 70 108 0.0 2.0 0.00 0.01 0.00 77 1009.0
20260510100538 70 108 0.0 1.0 0.00 0.01 0.00 77 1009.1
20260510100047 70 89 0.0 1.0 0.00 0.01 0.00 77 1009.1
20260510095537 70 89 0.0 2.0 0.00 0.01 0.00 77 1009.1
20260510095040 70 89 0.0 2.0 0.00 0.01 0.00 77 1009.0
20260510094540 70 207 0.0 1.0 0.00 0.01 0.00 76 1008.9
20260510094033 70 207 0.0 0.0 0.00 0.01 0.00 76 1008.8
20260510093533 70 207 0.0 2.0 0.00 0.01 0.00 76 1008.7
20260510093037 70 207 0.0 2.0 0.00 0.01 0.00 76 1008.7
20260510092532 71 207 0.0 2.0 0.00 0.01 0.00 76 1008.6
20260510092031 71 207 0.0 2.0 0.00 0.01 0.00 75 1008.5
20260510091532 71 207 0.0 2.0 0.00 0.01 0.00 75 1008.7
20260510091031 71 207 0.0 2.0 0.00 0.01 0.00 75 1008.7
20260510090531 71 207 0.0 3.0 0.00 0.01 0.00 75 1008.6
20260510090031 71 160 1.0 3.0 0.00 0.01 0.00 75 1008.6
20260510085532 71 173 1.0 3.0 0.00 0.01 0.00 75 1008.6
20260510085029 71 174 0.0 1.0 0.00 0.01 0.00 75 1008.6
20260510084533 71 174 0.0 2.0 0.00 0.01 0.00 75 1008.6
20260510084028 71 174 0.0 2.0 0.00 0.01 0.00 75 1008.6
20260510083528 71 174 0.0 1.0 0.00 0.01 0.00 74 1008.5
20260510083027 71 174 0.0 1.0 0.00 0.01 0.00 74 1008.7
20260510082526 72 174 0.0 1.0 0.00 0.01 0.00 74 1008.6
20260510082025 72 174 0.0 1.0 0.00 0.01 0.00 74 1008.6
20260510081536 72 174 0.0 0.0 0.00 0.01 0.00 74 1008.5
20260510081025 72 174 0.0 2.0 0.00 0.01 0.00 73 1008.5
20260510080523 72 174 0.0 2.0 0.00 0.01 0.00 73 1008.4
20260510080038 72 174 0.0 2.0 0.00 0.01 0.00 73 1008.4
20260510075523 72 174 0.0 2.0 0.00 0.01 0.00 73 1008.4
20260510075022 73 169 0.0 2.0 0.00 0.01 0.00 72 1008.4
20260510074524 73 169 0.0 2.0 0.00 0.01 0.00 72 1008.4
20260510074019 73 169 0.0 3.0 0.00 0.01 0.00 72 1008.4
20260510073519 73 169 1.0 4.0 0.00 0.01 0.00 72 1008.4
20260510073033 73 169 1.0 3.0 0.00 0.01 0.00 71 1008.4
20260510072519 74 203 1.0 4.0 0.00 0.01 0.00 71 1008.3
20260510072018 74 199 0.0 4.0 0.00 0.01 0.00 71 1008.3
20260510071519 74 205 1.0 4.0 0.00 0.01 0.00 71 1008.3
20260510071017 74 160 2.0 4.0 0.00 0.01 0.00 71 1008.3
20260510070516 74 183 1.0 5.0 0.00 0.01 0.00 71 1008.3
20260510070016 74 157 2.0 6.0 0.00 0.01 0.00 71 1008.4
20260510065617 74 163 1.0 6.0 0.00 0.01 0.00 71 1008.3
20260510065017 74 180 1.0 5.0 0.00 0.01 0.00 71 1008.4
20260510064514 74 202 1.0 5.0 0.00 0.01 0.00 71 1008.3
20260510064015 75 165 2.0 5.0 0.00 0.01 0.00 71 1008.3
20260510063513 75 152 2.0 6.0 0.00 0.01 0.00 71 1008.3
20260510063016 75 200 1.0 7.0 0.00 0.01 0.00 71 1008.4
20260510062512 75 162 1.0 7.0 0.00 0.01 0.00 71 1008.4
20260510062011 75 140 3.0 8.0 0.00 0.01 0.00 71 1008.3
20260510061511 75 188 3.0 8.0 0.00 0.01 0.00 71 1008.4
20260510061010 75 164 1.0 6.0 0.00 0.01 0.00 71 1008.4
20260510060511 75 139 3.0 6.0 0.00 0.01 0.00 71 1008.4
20260510060022 76 150 0.0 5.0 0.00 0.01 0.00 71 1008.4
20260510055517 76 159 2.0 5.0 0.00 0.01 0.00 71 1008.5
20260510055010 76 195 0.0 1.0 0.00 0.01 0.00 71 1008.4
20260510054510 76 195 0.0 2.0 0.00 0.01 0.00 70 1008.4
20260510054007 76 195 0.0 3.0 0.00 0.01 0.00 70 1008.4
20260510053507 76 150 0.0 2.0 0.00 0.01 0.00 70 1008.4
20260510053005 76 113 0.0 3.0 0.00 0.01 0.00 70 1008.3
20260510052505 76 161 0.0 3.0 0.00 0.01 0.00 70 1008.2
20260510052004 77 161 0.0 7.0 0.00 0.01 0.00 70 1008.2
20260510051504 77 161 1.0 7.0 0.00 0.01 0.00 69 1008.1
20260510051002 77 170 3.0 6.0 0.00 0.01 0.00 69 1008.1
20260510050502 77 177 3.0 6.0 0.00 0.01 0.00 69 1008.0
20260510050001 77 163 2.0 7.0 0.00 0.01 0.00 69 1008.0
20260510045600 78 167 3.0 7.0 0.00 0.01 0.01 69 1007.9
20260510045100 78 175 3.0 8.0 0.00 0.01 0.01 68 1007.9
20260510044600 78 156 2.0 8.0 0.00 0.01 0.01 68 1007.8
20260510044102 78 204 2.0 8.0 0.00 0.01 0.01 68 1007.8
20260510043559 78 174 2.0 8.0 0.00 0.01 0.01 67 1007.8
20260510043101 79 157 3.0 8.0 0.00 0.01 0.01 67 1007.9
20260510042600 79 140 1.0 6.0 0.00 0.01 0.01 67 1007.9
20260510042101 79 167 2.0 6.0 0.00 0.01 0.01 67 1007.9
20260510041609 79 175 1.0 6.0 0.00 0.01 0.01 67 1007.9
20260510041059 79 148 1.0 4.0 0.00 0.01 0.01 67 1007.9
20260510040559 79 94 1.0 4.0 0.00 0.01 0.01 67 1007.8
20260510040113 79 58 0.0 2.0 0.00 0.01 0.01 67 1007.9
20260510035558 79 171 0.0 4.0 0.00 0.01 0.01 67 1007.8
20260510035100 79 155 1.0 4.0 0.00 0.01 0.01 67 1007.7
20260510034558 80 198 1.0 4.0 0.00 0.01 0.01 66 1007.6
20260510034058 80 64 0.0 1.0 0.00 0.01 0.01 66 1007.4
20260510033557 80 64 0.0 1.0 0.00 0.01 0.01 66 1007.3
20260510033104 80 149 0.0 2.0 0.00 0.01 0.01 66 1007.3
20260510032600 80 149 0.0 2.0 0.00 0.01 0.01 66 1007.2
20260510032057 80 145 0.0 2.0 0.00 0.01 0.01 66 1007.2
20260510031603 80 175 0.0 2.0 0.00 0.01 0.01 65 1007.1
20260510031057 81 175 0.0 2.0 0.00 0.01 0.01 65 1007.2
20260510030558 81 122 0.0 3.0 0.00 0.01 0.01 66 1007.1
20260510025556 81 152 0.0 2.0 0.00 0.01 0.01 66 1007.0
20260510025058 81 90 0.0 2.0 0.00 0.01 0.01 66 1006.9
20260510024557 81 69 0.0 2.0 0.00 0.01 0.01 66 1006.9
20260510024055 81 69 0.0 2.0 0.00 0.01 0.01 65 1006.9
20260510023555 81 69 0.0 1.0 0.00 0.01 0.01 65 1006.8
20260510023055 81 69 0.0 1.0 0.00 0.01 0.01 65 1006.7
20260510022559 81 69 0.0 2.0 0.00 0.01 0.01 64 1006.7
20260510022055 81 69 0.0 2.0 0.00 0.01 0.01 64 1006.7
20260510021645 82 69 0.0 2.0 0.00 0.01 0.01 64 1006.7
20260510021055 82 69 0.0 2.0 0.00 0.01 0.01 63 1006.6
20260510020555 82 69 0.0 2.0 0.00 0.01 0.01 62 1006.6
20260510020100 82 69 0.0 2.0 0.00 0.01 0.01 61 1006.6
20260510015556 83 39 0.0 2.0 0.00 0.01 0.01 61 1006.4
20260510015056 83 80 0.0 3.0 0.00 0.01 0.01 60 1006.4
20260510014559 83 81 1.0 3.0 0.00 0.01 0.01 59 1006.3
20260510014055 84 154 0.0 2.0 0.00 0.01 0.01 58 1006.2
20260510013555 84 154 0.0 2.0 0.00 0.01 0.01 57 1006.1
20260510013102 84 154 0.0 2.0 0.00 0.01 0.01 56 1006.1
20260510012553 84 154 0.0 2.0 0.00 0.01 0.01 55 1006.0
20260510012054 85 190 0.0 2.0 0.00 0.01 0.01 54 1005.9
20260510011553 85 204 0.0 6.0 0.00 0.01 0.01 54 1005.9
20260510011054 85 109 1.0 5.0 0.00 0.01 0.01 53 1005.9
20260510010553 86 115 1.0 3.0 0.00 0.01 0.01 52 1005.8
20260510010058 86 44 1.0 3.0 0.00 0.01 0.01 52 1005.8
20260510005554 86 155 1.0 4.0 0.00 0.01 0.01 52 1005.7
20260510005052 86 117 0.0 5.0 0.00 0.01 0.01 51 1005.7
20260510004552 87 135 1.0 9.0 0.00 0.01 0.01 49 1005.7
20260510004052 87 157 3.0 9.0 0.00 0.01 0.01 50 1005.6
20260510003553 87 124 1.0 8.0 0.00 0.01 0.01 51 1005.6
20260510003052 88 186 2.0 10.0 0.00 0.01 0.01 50 1005.5
20260510002555 88 159 3.0 10.0 0.00 0.01 0.01 49 1005.4
20260510002051 88 152 2.0 7.0 0.00 0.01 0.01 49 1005.3
20260510001551 89 158 3.0 7.0 0.00 0.01 0.01 48 1005.3
20260510001051 89 69 1.0 6.0 0.00 0.01 0.01 47 1005.2
20260510000550 89 184 1.0 11.0 0.00 0.01 0.01 49 1005.1
20260510000051 89 225 1.0 11.0 0.00 0.01 0.01 49 1005.1
20260509235652 89 112 2.0 8.0 0.00 0.01 0.01 48 1005.0
20260509235049 90 169 3.0 8.0 0.00 0.01 0.01 48 1004.9
20260509234549 90 120 3.0 8.0 0.00 0.01 0.01 47 1004.8
20260509234049 90 163 4.0 11.0 0.00 0.01 0.01 48 1004.6
20260509233550 90 190 5.0 12.0 0.00 0.01 0.01 48 1004.7
20260509233048 90 184 5.0 12.0 0.00 0.01 0.01 48 1004.7
20260509232548 90 250 3.0 10.0 0.00 0.01 0.01 49 1004.6
20260509232048 90 149 6.0 10.0 0.00 0.01 0.01 48 1004.8
20260509231548 90 163 2.0 7.0 0.00 0.01 0.01 48 1005.0
20260509231045 90 157 1.0 7.0 0.00 0.01 0.01 49 1005.2
20260509230545 90 71 2.0 6.0 0.00 0.01 0.01 49 1005.2
20260509230048 90 165 2.0 6.0 0.00 0.01 0.01 49 1005.2
20260509225546 90 132 2.0 9.0 0.00 0.01 0.01 49 1005.2
20260509225043 90 118 3.0 9.0 0.00 0.01 0.01 49 1005.2
20260509224543 91 148 4.0 10.0 0.00 0.01 0.01 49 1005.3
20260509224044 90 159 3.0 10.0 0.00 0.01 0.01 49 1005.2
20260509223544 91 156 4.0 8.0 0.00 0.01 0.01 49 1005.2
20260509223044 91 222 3.0 8.0 0.00 0.01 0.01 49 1005.1
20260509222545 90 204 1.0 9.0 0.00 0.01 0.01 49 1005.0
20260509222043 90 167 4.0 9.0 0.00 0.01 0.01 49 1005.0
20260509221543 91 160 4.0 10.0 0.00 0.01 0.01 49 1005.1
20260509221042 91 249 3.0 9.0 0.00 0.01 0.01 48 1005.0
20260509220542 91 236 1.0 8.0 0.00 0.01 0.01 48 1005.0
20260509220043 92 196 4.0 10.0 0.00 0.01 0.01 47 1005.1
20260509215542 92 237 3.0 11.0 0.00 0.01 0.01 48 1005.2
20260509215042 91 240 2.0 6.0 0.00 0.01 0.01 49 1005.2
20260509214542 91 142 1.0 8.0 0.00 0.01 0.01 49 1005.2
20260509214040 91 132 3.0 8.0 0.00 0.01 0.01 49 1005.3
20260509213541 91 181 2.0 6.0 0.00 0.01 0.01 50 1005.2
20260509213043 90 102 2.0 8.0 0.00 0.01 0.01 51 1005.4
20260509212539 91 186 3.0 9.0 0.00 0.01 0.01 49 1005.4
20260509212039 91 148 1.0 9.0 0.00 0.01 0.01 48 1005.4
20260509211539 91 88 3.0 10.0 0.00 0.01 0.01 49 1005.5
20260509211038 91 165 4.0 10.0 0.00 0.01 0.01 49 1005.5
20260509210540 92 259 3.0 8.0 0.00 0.01 0.01 48 1005.6
20260509210044 92 255 2.0 9.0 0.00 0.01 0.01 48 1005.7
20260509205537 91 277 4.0 11.0 0.00 0.01 0.01 49 1005.7
20260509205036 91 213 5.0 11.0 0.00 0.01 0.01 49 1005.7
20260509204535 91 182 3.0 8.0 0.00 0.01 0.01 48 1005.8
20260509204034 90 275 3.0 9.0 0.00 0.01 0.01 49 1005.9
20260509203533 91 148 3.0 10.0 0.00 0.01 0.01 49 1006.1
20260509203034 90 184 3.0 10.0 0.00 0.01 0.01 48 1006.1
20260509202537 92 208 3.0 8.0 0.00 0.01 0.01 47 1006.2
20260509202035 91 211 3.0 10.0 0.00 0.01 0.01 45 1006.3
20260509201533 90 226 3.0 10.0 0.00 0.01 0.01 47 1006.3
20260509201029 90 230 4.0 9.0 0.00 0.01 0.01 49 1006.4
20260509200532 89 207 1.0 8.0 0.00 0.01 0.01 51 1006.5
20260509200028 90 153 3.0 8.0 0.00 0.01 0.01 52 1006.6
20260509195529 91 178 2.0 11.0 0.00 0.01 0.01 49 1006.7
20260509195025 91 233 5.0 11.0 0.00 0.01 0.01 48 1006.8
20260509194537 92 264 3.0 7.0 0.00 0.01 0.01 48 1006.9
20260509194026 90 192 1.0 9.0 0.00 0.01 0.01 53 1007.0
20260509193527 90 144 4.0 9.0 0.00 0.01 0.01 52 1007.2
20260509193025 91 225 5.0 10.0 0.00 0.01 0.01 51 1007.3
20260509192524 89 154 1.0 10.0 0.00 0.01 0.01 54 1007.3
20260509192026 88 318 4.0 9.0 0.00 0.01 0.01 55 1007.4
20260509191525 88 99 2.0 9.0 0.00 0.01 0.01 56 1007.4
20260509191025 87 148 3.0 6.0 0.00 0.01 0.01 55 1007.4
20260509190525 88 215 3.0 9.0 0.00 0.01 0.01 54 1007.5
20260509190026 89 274 4.0 9.0 0.00 0.01 0.01 54 1007.5
20260509185524 89 305 1.0 11.0 0.00 0.01 0.01 54 1007.5
20260509185022 90 262 4.0 12.0 0.00 0.01 0.01 53 1007.5
20260509184527 89 259 6.0 12.0 0.00 0.01 0.01 54 1007.6
20260509184020 89 302 1.0 9.0 0.00 0.01 0.01 56 1007.6
20260509183520 88 154 2.0 9.0 0.00 0.01 0.01 55 1007.7
20260509183020 88 219 3.0 9.0 0.00 0.01 0.01 55 1007.8